Location: Carimao
(10.4546°N, 66.7419°W)
Time: 08:24:26
(UTC+00:00)

Ariane H10+ - Pass Details

Date: 19 May 2024
Orbit: 400 x 35140 km, 7.7° (Epoch: 22 June)

Event Time Altitude Azimuth Distance (km) Brightness Sun altitude
Rises 22:53:28 0° 263° (W) 2,284 6.7 -3.3°
Reaches altitude 10° 22:55:01 10° 258° (WSW) 1,471 5.5 -3.7°
Maximum altitude 22:57:36 59° 176° (S) 640 2.5 -4.3°
Drops below altitude 10° 23:03:51 10° 96° (E) 3,511 5.8 -5.7°
Enters shadow 23:06:48 - 94° (E) 4,960 6.5 -6.4°
